Location: Voyageurs National Park
(48.5020°N, 92.9292°W)
Time: 08:31:35
(UTC-05:00)

BREEZE-M DEB (TANK) - Pass Details

Date: 19 January 2018
Orbit: 323 x 16442 km, 49.5° (Epoch: 26 May)

Event Time Altitude Azimuth Distance (km) Brightness Sun altitude
Exits shadow 05:53:38 33° 275° (W) 1,661 4.1 -19.7°
Maximum altitude 05:56:17 79° 357° (N) 722 2.8 -19.3°
Drops below altitude 10° 05:59:15 10° 85° (E) 1,573 5.8 -18.8°
Sets 06:00:36 0° 87° (E) 2,236 7.0 -18.6°
